Location: Staunton
(38.1490°N, 79.0720°W)
Time: 14:26:53
(UTC-04:00)

ISS - Pass Details

Date: 26 May 2017
Orbit: 402 x 408 km, 51.6° (Epoch: 29 May)

Event Time Altitude Azimuth Distance (km) Brightness Sun altitude
Rises 21:53:13 0° 255° (WSW) 2,323 0.5 -14.2°
Reaches altitude 10° 21:55:28 10° 267° (W) 1,465 -0.4 -14.6°
Maximum altitude 21:58:22 28° 329° (NNW) 797 -1.6 -15.0°
Drops below altitude 10° 22:01:17 10° 31° (NNE) 1,469 -0.8 -15.4°
Sets 22:03:33 0° 44° (NE) 2,331 0.0 -15.7°
